EDW202 EDDB-EGKK

Flight info

Callsign EDW202
Flight time N/A
Altitude 38000
Route SUKIP3N SUKIP Y206 BUREL P203 HLZ L980 SAS DCT SOGPO DCT GALSO Q63 ARREK Y4 TEBRA
Aircraft A320/M-SDE3FGHIRWY/LB1

Departure

Time N/A
Airport Berlin Brandenburg Airport (EDDB)

Arrival

Time 2026-05-04 16:58
Airport London Gatwick Airport (EGKK)
Time Latitude Longitude Altitude Speed Heading
2026-05-04 15:36 52.34842 11.66955 30444 ft 401 kts 269°
2026-05-04 15:36 52.34938 11.62369 30718 ft 403 kts 269°
2026-05-04 15:36 52.35033 11.57831 30970 ft 404 kts 269°
2026-05-04 15:37 52.35126 11.53278 31235 ft 405 kts 269°
2026-05-04 15:37 52.35216 11.48610 31499 ft 406 kts 269°
2026-05-04 15:37 52.35304 11.44018 31876 ft 404 kts 269°
2026-05-04 15:37 52.35391 11.39437 32287 ft 401 kts 269°
2026-05-04 15:38 52.35478 11.34877 32658 ft 399 kts 269°
2026-05-04 15:38 52.35560 11.30403 33013 ft 398 kts 269°
2026-05-04 15:38 52.35640 11.25887 33370 ft 397 kts 269°
2026-05-04 15:38 52.35715 11.21345 33740 ft 395 kts 269°
2026-05-04 15:39 52.35789 11.16898 34078 ft 394 kts 269°
2026-05-04 15:39 52.35862 11.12418 34365 ft 393 kts 269°
2026-05-04 15:39 52.36003 11.03472 34854 ft 393 kts 269°
2026-05-04 15:40 52.36070 10.98990 35082 ft 394 kts 269°
2026-05-04 15:40 52.36134 10.94499 35314 ft 394 kts 269°
2026-05-04 15:40 52.36196 10.90023 35531 ft 395 kts 268°
2026-05-04 15:40 52.36257 10.85533 35730 ft 395 kts 268°
2026-05-04 15:41 52.36298 10.81026 35937 ft 395 kts 265°
2026-05-04 15:41 52.36000 10.76576 36137 ft 393 kts 257°
2026-05-04 15:41 52.35473 10.72193 36326 ft 393 kts 257°
2026-05-04 15:41 52.34941 10.67799 36512 ft 394 kts 257°
2026-05-04 15:42 52.34408 10.63415 36699 ft 394 kts 257°
2026-05-04 15:42 52.33873 10.59012 36884 ft 395 kts 257°
2026-05-04 15:42 52.33338 10.54604 37065 ft 395 kts 257°
2026-05-04 15:42 52.32802 10.50212 37244 ft 395 kts 257°
2026-05-04 15:43 52.32260 10.45792 37421 ft 396 kts 257°
2026-05-04 15:43 52.31717 10.41372 37599 ft 397 kts 257°
2026-05-04 15:43 52.31171 10.36957 37754 ft 398 kts 257°
2026-05-04 15:43 52.30623 10.32523 37905 ft 398 kts 257°
2026-05-04 15:44 52.30074 10.28087 37976 ft 399 kts 257°
2026-05-04 15:44 52.28971 10.19216 37975 ft 399 kts 257°
2026-05-04 15:45 52.27859 10.10346 37970 ft 399 kts 257°
2026-05-04 15:45 52.26741 10.01481 37974 ft 399 kts 257°
2026-05-04 15:46 52.25610 9.92615 37974 ft 399 kts 257°
2026-05-04 15:46 52.24778 9.83714 37972 ft 401 kts 262°
2026-05-04 15:47 52.24208 9.74647 37971 ft 402 kts 262°
2026-05-04 15:47 52.23627 9.65579 37972 ft 402 kts 262°
2026-05-04 15:48 52.23034 9.56511 37974 ft 402 kts 262°
2026-05-04 15:48 52.22137 9.42913 37958 ft 402 kts 262°
2026-05-04 15:49 52.21531 9.33851 37953 ft 402 kts 261°
2026-05-04 15:49 52.20919 9.24788 37950 ft 402 kts 261°
2026-05-04 15:50 52.20293 9.15721 37948 ft 402 kts 261°
2026-05-04 15:50 52.19664 9.06714 37948 ft 402 kts 261°
2026-05-04 15:51 52.19027 8.97656 37950 ft 402 kts 261°
2026-05-04 15:51 52.18387 8.88598 37962 ft 403 kts 261°
2026-05-04 15:52 52.17730 8.79429 37958 ft 406 kts 261°
2026-05-04 15:52 52.17067 8.70302 37963 ft 406 kts 261°
2026-05-04 15:53 52.16401 8.61160 37966 ft 406 kts 261°
2026-05-04 15:53 52.15721 8.52062 37969 ft 406 kts 261°
2026-05-04 15:54 52.15027 8.42885 37970 ft 406 kts 261°
2026-05-04 15:54 52.14336 8.33713 37967 ft 407 kts 261°
2026-05-04 15:55 52.13640 8.24568 37972 ft 408 kts 261°
2026-05-04 15:55 52.12931 8.15413 37972 ft 408 kts 261°
2026-05-04 15:56 52.12216 8.06245 37974 ft 408 kts 261°
2026-05-04 15:56 52.11494 7.97087 37974 ft 408 kts 260°
2026-05-04 15:57 52.10759 7.87922 37974 ft 408 kts 260°
2026-05-04 15:57 52.10027 7.78786 37974 ft 408 kts 260°
2026-05-04 15:58 52.09286 7.69622 37974 ft 408 kts 260°
2026-05-04 15:58 52.08529 7.60470 37980 ft 408 kts 260°
2026-05-04 15:59 52.07765 7.51340 37974 ft 408 kts 260°
2026-05-04 15:59 52.07000 7.42200 37974 ft 408 kts 260°
2026-05-04 16:00 52.06226 7.33051 37977 ft 408 kts 260°
2026-05-04 16:00 52.05451 7.23923 37980 ft 408 kts 260°
2026-05-04 16:01 52.04661 7.14717 37977 ft 409 kts 259°
2026-05-04 16:01 52.03860 7.05511 37977 ft 409 kts 259°
2026-05-04 16:02 52.03054 6.96375 37978 ft 409 kts 259°
2026-05-04 16:03 52.01834 6.82663 37968 ft 410 kts 259°
2026-05-04 16:03 52.01015 6.73486 37973 ft 411 kts 259°
2026-05-04 16:04 52.00184 6.64313 37973 ft 411 kts 259°
2026-05-04 16:04 51.98922 6.50552 37975 ft 411 kts 259°
2026-05-04 16:05 51.98073 6.41384 37972 ft 411 kts 259°
2026-05-04 16:06 51.96776 6.27602 37972 ft 414 kts 258°
2026-05-04 16:07 51.95552 6.10592 37970 ft 416 kts 262°
2026-05-04 16:08 51.94442 5.91759 37965 ft 415 kts 261°
2026-05-04 16:09 51.92890 5.68417 37972 ft 418 kts 261°
2026-05-04 16:10 51.91618 5.49696 37973 ft 418 kts 261°
2026-05-04 16:11 51.90323 5.30925 37977 ft 421 kts 261°
2026-05-04 16:12 51.88285 5.02614 37968 ft 422 kts 261°
2026-05-04 16:13 51.86897 4.83776 37969 ft 423 kts 261°
2026-05-04 16:14 51.85463 4.64790 38010 ft 426 kts 260°
2026-05-04 16:16 51.83648 4.41091 37977 ft 425 kts 260°
2026-05-04 16:17 51.81794 4.17765 37975 ft 425 kts 260°
2026-05-04 16:18 51.80259 3.98876 37986 ft 425 kts 260°
2026-05-04 16:19 51.78304 3.75231 38009 ft 426 kts 259°
2026-05-04 16:20 51.76286 3.51518 37132 ft 425 kts 259°
2026-05-04 16:21 51.75060 3.37323 35146 ft 422 kts 258°
2026-05-04 16:22 51.74253 3.28100 34192 ft 413 kts 258°
2026-05-04 16:22 51.73043 3.14459 32656 ft 401 kts 258°
2026-05-04 16:23 51.71899 3.01176 31172 ft 395 kts 258°
2026-05-04 16:24 51.70385 2.83783 29289 ft 388 kts 258°
2026-05-04 16:25 51.69626 2.75236 28285 ft 382 kts 259°
2026-05-04 16:26 51.68126 2.58531 26384 ft 371 kts 259°
2026-05-04 16:26 51.67032 2.46328 25039 ft 362 kts 259°
2026-05-04 16:27 51.66308 2.38362 24185 ft 357 kts 259°
2026-05-04 16:28 51.65216 2.26583 22794 ft 352 kts 259°
2026-05-04 16:28 51.64125 2.14986 21535 ft 347 kts 259°
2026-05-04 16:29 51.62701 1.99742 20003 ft 341 kts 260°
2026-05-04 16:30 51.61655 1.88499 18907 ft 337 kts 259°
2026-05-04 16:31 51.59984 1.81583 18133 ft 331 kts 235°
2026-05-04 16:31 51.55525 1.73251 16847 ft 326 kts 228°
2026-05-04 16:32 51.51050 1.65112 15618 ft 322 kts 228°
2026-05-04 16:33 51.48481 1.59286 14828 ft 320 kts 246°
2026-05-04 16:33 51.46953 1.52622 14387 ft 318 kts 250°
2026-05-04 16:34 51.45410 1.45979 13958 ft 317 kts 249°
2026-05-04 16:34 51.44638 1.42670 13741 ft 315 kts 249°
2026-05-04 16:35 51.41431 1.35094 13092 ft 311 kts 218°
2026-05-04 16:35 51.36217 1.28938 12391 ft 307 kts 217°
2026-05-04 16:36 51.34502 1.26903 12156 ft 307 kts 217°
2026-05-04 16:36 51.31076 1.22839 11693 ft 307 kts 217°
2026-05-04 16:37 51.27660 1.18808 11246 ft 304 kts 217°
2026-05-04 16:37 51.25964 1.16816 11020 ft 303 kts 216°
2026-05-04 16:37 51.22564 1.12830 10580 ft 302 kts 216°
2026-05-04 16:38 51.19659 1.08271 10170 ft 288 kts 246°
2026-05-04 16:39 51.18572 0.98920 9998 ft 287 kts 262°
2026-05-04 16:39 51.18003 0.92618 9997 ft 287 kts 261°
2026-05-04 16:40 51.17444 0.86344 9998 ft 286 kts 262°
2026-05-04 16:40 51.16879 0.80046 9999 ft 287 kts 262°
2026-05-04 16:41 51.16312 0.73761 9999 ft 286 kts 262°
2026-05-04 16:41 51.15463 0.64324 10001 ft 286 kts 262°
2026-05-04 16:42 51.14607 0.54895 10003 ft 287 kts 261°
2026-05-04 16:43 51.14036 0.48614 10003 ft 286 kts 261°
2026-05-04 16:43 51.13482 0.42332 10002 ft 287 kts 262°
2026-05-04 16:43 51.13209 0.39184 10002 ft 287 kts 262°
2026-05-04 16:44 51.12099 0.26543 9965 ft 286 kts 261°
2026-05-04 16:45 51.11586 0.20595 9570 ft 255 kts 262°
2026-05-04 16:46 51.10835 0.12366 8533 ft 247 kts 261°
2026-05-04 16:46 51.10317 0.07017 7999 ft 244 kts 261°
2026-05-04 16:47 51.09785 0.01680 7867 ft 244 kts 261°
2026-05-04 16:47 51.09256 -0.03629 7133 ft 243 kts 261°
2026-05-04 16:48 51.08477 -0.11601 7002 ft 244 kts 261°
2026-05-04 16:48 51.08216 -0.14261 7003 ft 244 kts 261°
2026-05-04 16:49 51.07694 -0.19566 7002 ft 244 kts 261°
2026-05-04 16:49 51.07164 -0.24894 6448 ft 241 kts 261°
2026-05-04 16:50 51.06624 -0.30144 5717 ft 239 kts 261°
2026-05-04 16:50 51.06078 -0.35334 5011 ft 237 kts 261°
2026-05-04 16:51 51.05523 -0.40452 4314 ft 235 kts 261°
2026-05-04 16:51 51.05244 -0.42999 4039 ft 232 kts 261°
2026-05-04 16:51 51.04692 -0.48135 4005 ft 236 kts 268°
2026-05-04 16:52 51.06031 -0.52255 3912 ft 207 kts 336°
2026-05-04 16:52 51.07363 -0.52911 3833 ft 194 kts 351°
2026-05-04 16:53 51.09709 -0.51632 3320 ft 183 kts 44°
2026-05-04 16:53 51.11045 -0.46048 3004 ft 177 kts 75°
2026-05-04 16:54 51.11334 -0.44214 3004 ft 167 kts 75°
2026-05-04 16:55 51.12291 -0.37184 2336 ft 161 kts 76°
2026-05-04 16:55 51.12774 -0.33720 1899 ft 160 kts 76°
2026-05-04 16:56 51.13263 -0.30212 1458 ft 171 kts 76°
2026-05-04 16:56 51.13938 -0.25302 750 ft 136 kts 76°
2026-05-04 16:57 51.14145 -0.23855 603 ft 131 kts 76°
2026-05-04 16:57 51.14529 -0.21061 303 ft 128 kts 76°
2026-05-04 16:58 51.14909 -0.18580 205 ft 1 kts 51°